Starlink 11503

operational
NORAD ID: 63142 Int'l Des: 2025-043 Owner: SPXS Country: US Constellation: starlink
LEOCIRCULAR

关于 Starlink 11503

正在加载描述...

实时位置

正在加载3D地球...

即将过境

高度历史

Altitude vs Time

uPlot chart will show altitude changes over time

两行轨道根数

1 63142U 25043L 26035.28873811 .00203738 00000-0 15509-2 0 9999
2 63142 43.0002 91.6283 0001542 215.2769 144.7997 15.70866564 54042
Epoch: Feb 4, 2026 • Age: 11 hours

当前状态

高度 357.2 km
速度 7.70 km/s
星下点 -5.47°S, 44.54°E
发射日期 Mar 3, 2025
运行时间 0.9 years
类型 internet

技术详情

分类 Payload
质量 960.00 kg
干质量 910.00 kg
总质量 960.00 kg
长度 0.30 m
直径 4.10 m
跨度 29.00 m
形状 Box + pan
制造商 SPXS
平台类型 Starlink V2MD
阶段状态 In Orbit
所有者/国家 SPXS/US

大型星座

Loading constellations...